Change the Weather History Date:

Saturday, February 16, 2013

  Actual Average Record
Temperature  
Mean Temperature 38 °F -  
Max Temperature 48 °F 45 °F 53 °F (2012)
Min Temperature 28 °F 33 °F 24 °F (2008)
Degree Days  
Heating Degree Days 27    
Moisture  
Dew Point 37 °F    
Average Humidity 86    
Maximum Humidity 100    
Minimum Humidity 66    
Precipitation  
Precipitation 0.00 in 0.07 in - ()
Sea Level Pressure  
Sea Level Pressure 30.05 in    
Wind  
Wind Speed 5 mph ()    
Max Wind Speed 10 mph    
Max Gust Speed -    
Visibility 8.2 miles    
Events Fog , Rain    
Averages and records for this station are not official NWS values.
T = Trace of Precipitation, MM = Missing Value Source: Averaged Metar Reports

Daily Weather History Graph

Daily Weather History Graph

Search for Another Location

Airport or City:

Trip Planner

Search our weather history database for the weather conditions in past years. The results will help you decide how hot, cold, wet, or windy it might be!

Date:

Astronomy

Feb. 16, 2013 Rise Set
Actual Time 7:34 AM GMT 5:11 PM GMT
Civil Twilight 6:54 AM GMT 5:51 PM GMT
Nautical Twilight 6:10 AM GMT 6:36 PM GMT
Astronomical Twilight 5:25 AM GMT 7:21 PM GMT
Moon 9:12 AM GMT (2/16) 12:20 AM GMT (2/16)
Length of Visible Light 10h 56m
Length of Day
9h 36m
Waxing Crescent, 37% of the Moon is Illuminated
Feb 16
Waxing Crescent
Feb 17
First Quarter
Feb 25
Full
Mar 4
Last Quarter
Mar 11
New

Hourly Weather History & Observations

Time (GMT) Temp. Windchill Dew Point Humidity Pressure Visibility Wind Dir Wind Speed Gust Speed Precip Events Conditions
12:20 AM 32.0 °F - 30.2 °F 93% 30.06 in 6.2 mi North 2.3 mph - N/A   Unknown
12:50 AM 32.0 °F - 30.2 °F 93% 30.06 in - Calm Calm - N/A   Clear
1:50 AM 30.2 °F - 30.2 °F 100% 30.06 in - Calm Calm - N/A   Mist
2:20 AM 28.4 °F - 28.4 °F 100% 30.06 in 0.7 mi Calm Calm - N/A   Mist
2:50 AM 31 °F - 30 °F 94% 30.08 in 9 mi SSW 1.2 mph - -  
2:50 AM 30.2 °F - 30.2 °F 100% 30.06 in 5.0 mi Calm Calm - N/A Fog Fog
3:20 AM 28.4 °F - 28.4 °F 100% 30.06 in 0.5 mi Calm Calm - N/A Fog Patches of Fog
3:50 AM 28.4 °F - 26.6 °F 93% 30.06 in 6.2 mi Calm Calm - N/A   Unknown
4:20 AM 28.4 °F - 28.4 °F 100% 30.06 in 6.2 mi Calm Calm - N/A   Unknown
4:50 AM 33.8 °F 28.6 °F 32.0 °F 93% 30.06 in 6.2 mi South 5.8 mph - N/A   Unknown
5:20 AM 35.6 °F 30.7 °F 33.8 °F 93% 30.06 in - South 5.8 mph - N/A   Clear
5:50 AM 38 °F - 35 °F 83% 30.07 in 17 mi South 10.4 mph - -  
5:50 AM 37.4 °F 30.8 °F 33.8 °F 87% 30.04 in - South 9.2 mph - N/A   Clear
6:20 AM 37.4 °F 30.8 °F 35.6 °F 93% 30.04 in - South 9.2 mph - N/A   Clear
6:50 AM 37.4 °F 30.8 °F 33.8 °F 87% 30.04 in - SSE 9.2 mph - N/A   Clear
7:20 AM 37.4 °F 31.4 °F 35.6 °F 93% 30.04 in - SSE 8.1 mph - N/A   Clear
7:50 AM 37.4 °F 31.4 °F 35.6 °F 93% 30.04 in - South 8.1 mph - N/A   Clear
8:20 AM 37.4 °F 30.3 °F 35.6 °F 93% 30.04 in - South 10.4 mph - N/A   Clear
8:50 AM 39 °F - 36 °F 83% 30.07 in 14 mi South 9.2 mph - -   Partly Cloudy
8:50 AM 39.2 °F 32.5 °F 35.6 °F 87% 30.06 in - South 10.4 mph - N/A   Clear
9:20 AM 39.2 °F 33.6 °F 37.4 °F 93% 30.06 in - South 8.1 mph - N/A   Clear
9:50 AM 41.0 °F 35.8 °F 37.4 °F 87% 30.06 in - South 8.1 mph - N/A   Clear
10:20 AM 41.0 °F 34.7 °F 37.4 °F 87% 30.06 in 6.2 mi South 10.4 mph - N/A Rain Light Rain
10:50 AM 42.8 °F 40.1 °F 37.4 °F 81% 30.06 in 6.2 mi South 4.6 mph - N/A Rain Light Rain Showers
11:20 AM 42.8 °F 38.0 °F 39.2 °F 87% 30.06 in 6.2 mi South 8.1 mph - N/A   Mostly Cloudy
11:50 AM 44 °F - 38 °F 74% 30.06 in 18 mi South 9.2 mph - - Rain Rain
11:50 AM 44.6 °F 40.7 °F 39.2 °F 81% 30.06 in - South 6.9 mph - N/A   Clear
12:20 PM 44.6 °F 40.7 °F 39.2 °F 81% 30.06 in 6.2 mi SSW 6.9 mph - N/A   Partly Cloudy
12:50 PM 44.6 °F 40.7 °F 39.2 °F 81% 30.04 in - South 6.9 mph - N/A   Clear
1:20 PM 44.6 °F 40.2 °F 39.2 °F 81% 30.04 in - South 8.1 mph - N/A   Clear
1:50 PM 48.2 °F - 41.0 °F 76% 30.04 in - South 5.8 mph - N/A   Clear
2:20 PM 48.2 °F - 41.0 °F 76% 30.04 in - SSW 5.8 mph - N/A   Clear
2:50 PM 48 °F - 40 °F 66% 30.05 in 25 mi South 5.8 mph - -   Mostly Cloudy
2:50 PM 48.2 °F - 41.0 °F 76% 30.04 in - South 6.9 mph - N/A   Clear
3:20 PM 46.4 °F 43.5 °F 41.0 °F 81% 30.04 in - SSE 5.8 mph - N/A   Clear
3:50 PM 46.4 °F 42.9 °F 41.0 °F 81% 30.04 in - South 6.9 mph - N/A   Clear
4:20 PM 44.6 °F 41.4 °F 39.2 °F 81% 30.04 in - South 5.8 mph - N/A   Clear
4:50 PM 44.6 °F 40.2 °F 39.2 °F 81% 30.04 in - SSE 8.1 mph - N/A   Clear
5:20 PM 42.8 °F 40.1 °F 39.2 °F 87% 30.04 in - East 4.6 mph - N/A   Clear
5:50 PM 44 °F - 39 °F 78% 30.06 in 25 mi SW 3.5 mph - -   Mostly Cloudy
5:50 PM 44.6 °F 41.4 °F 39.2 °F 81% 30.04 in - South 5.8 mph - N/A   Clear
6:20 PM 44.6 °F 41.4 °F 39.2 °F 81% 30.04 in - SE 5.8 mph - N/A   Clear
6:50 PM 44.6 °F 41.4 °F 39.2 °F 81% 30.06 in - South 5.8 mph - N/A   Clear
7:20 PM 44.6 °F 41.4 °F 39.2 °F 81% 30.06 in - SSW 5.8 mph - N/A   Clear
7:50 PM 44.6 °F 40.7 °F 39.2 °F 81% 30.06 in - South 6.9 mph - N/A   Clear
8:20 PM 44.6 °F 41.4 °F 39.2 °F 81% 30.06 in - South 5.8 mph - N/A   Clear
8:50 PM 43 °F - 39 °F 81% 30.08 in 25 mi SE 3.5 mph - -   Overcast
8:50 PM 44.6 °F 41.4 °F 39.2 °F 81% 30.06 in - SSE 5.8 mph - N/A   Clear
9:20 PM 42.8 °F 40.1 °F 39.2 °F 87% 30.06 in - SSE 4.6 mph - N/A   Clear
9:50 PM 42.8 °F 41.1 °F 39.2 °F 87% 30.06 in - Variable 3.5 mph - N/A   Clear
10:20 PM 42.8 °F 38.6 °F 39.2 °F 87% 30.06 in - South 6.9 mph - N/A   Clear
10:50 PM 44.6 °F 39.7 °F 41.0 °F 87% 30.06 in - South 9.2 mph - N/A   Clear
11:20 PM 44.6 °F 39.7 °F 41.0 °F 87% 30.06 in 6.2 mi South 9.2 mph - N/A   Unknown
11:50 PM 44 °F - 40 °F 82% 30.08 in 19 mi SSW 10.4 mph - -   Overcast
11:50 PM 44.6 °F 40.7 °F 41.0 °F 87% 30.06 in - South 6.9 mph - N/A   Clear